TimeEST,TemperatureF,Dew PointF,Humidity,Sea Level PressureIn,VisibilityMPH,Wind Direction,Wind SpeedMPH,Gust SpeedMPH,PrecipitationIn,Events,Conditions,WindDirDegrees,DateUTC
12:54 AM,33.1,21.0,61,30.26,10.0,West,8.1,-,N/A,,Mostly Cloudy,270,2012-12-31 05:54:00
1:54 AM,34.0,21.0,59,30.27,10.0,West,13.8,-,N/A,,Overcast,260,2012-12-31 06:54:00
2:54 AM,32.0,19.0,59,30.29,10.0,WSW,11.5,-,N/A,,Scattered Clouds,250,2012-12-31 07:54:00
3:54 AM,30.0,19.0,64,30.27,10.0,West,13.8,-,N/A,,Scattered Clouds,260,2012-12-31 08:54:00
4:54 AM,30.0,19.0,64,30.26,10.0,West,9.2,-,N/A,,Mostly Cloudy,260,2012-12-31 09:54:00
5:54 AM,30.0,19.0,64,30.25,10.0,West,12.7,-,N/A,,Overcast,260,2012-12-31 10:54:00
6:54 AM,30.0,19.0,64,30.24,10.0,West,12.7,-,N/A,,Overcast,260,2012-12-31 11:54:00
7:54 AM,30.9,19.0,61,30.24,10.0,West,10.4,-,N/A,,Overcast,260,2012-12-31 12:54:00
8:54 AM,30.9,19.0,61,30.25,10.0,West,13.8,-,N/A,,Overcast,260,2012-12-31 13:54:00
9:54 AM,32.0,19.9,61,30.25,10.0,WSW,15.0,-,N/A,,Overcast,250,2012-12-31 14:54:00
10:54 AM,34.0,19.9,56,30.23,10.0,WSW,16.1,-,N/A,,Overcast,250,2012-12-31 15:54:00
11:54 AM,36.0,21.9,57,30.19,10.0,WSW,12.7,-,N/A,,Overcast,250,2012-12-31 16:54:00
12:54 PM,36.0,21.0,55,30.15,10.0,SW,10.4,-,N/A,,Overcast,230,2012-12-31 17:54:00
1:54 PM,37.0,21.0,52,30.12,10.0,SW,11.5,-,N/A,,Overcast,230,2012-12-31 18:54:00
2:54 PM,37.0,19.9,50,30.10,10.0,SW,11.5,-,N/A,,Mostly Cloudy,230,2012-12-31 19:54:00
3:54 PM,37.9,21.9,53,30.07,10.0,SW,11.5,-,N/A,,Overcast,230,2012-12-31 20:54:00
4:54 PM,37.9,23.0,55,30.06,10.0,SW,10.4,-,N/A,,Overcast,230,2012-12-31 21:54:00
5:54 PM,37.9,24.1,57,30.04,10.0,WSW,9.2,-,N/A,,Overcast,250,2012-12-31 22:54:00
6:54 PM,39.0,25.0,57,30.03,10.0,WSW,11.5,-,N/A,,Overcast,240,2012-12-31 23:54:00
7:54 PM,39.0,24.1,55,30.00,10.0,SW,15.0,-,N/A,,Overcast,230,2013-01-01 00:54:00
8:54 PM,39.9,25.0,55,29.98,10.0,SW,17.3,-,N/A,,Overcast,230,2013-01-01 01:54:00
9:54 PM,39.9,25.0,55,29.99,10.0,WSW,13.8,-,N/A,,Overcast,250,2013-01-01 02:54:00
10:54 PM,39.9,24.1,53,29.98,10.0,WSW,16.1,-,N/A,,Overcast,240,2013-01-01 03:54:00
11:54 PM,41.0,25.0,53,29.97,10.0,WSW,11.5,-,N/A,,Overcast,250,2013-01-01 04:54:00